Weather History for Van Nuys, CA

Change the Weather History Date:

Monday, March 3, 2014

  Actual Average Record
Temperature  
Mean Temperature 60 °F -  
Max Temperature 70 °F 65 °F 81 °F (2012)
Min Temperature 51 °F 45 °F 41 °F (1997)
Degree Days  
Heating Degree Days 4    
Growing Degree Days 10 (Base 50)    
Moisture  
Dew Point 47 °F    
Average Humidity 68    
Maximum Humidity 89    
Minimum Humidity 39    
Precipitation  
Precipitation 0.01 in - - ()
Sea Level Pressure  
Sea Level Pressure 30.06 in    
Wind  
Wind Speed 2 mph (WSW)    
Max Wind Speed 10 mph    
Max Gust Speed -    
Visibility 10 miles    
Events      
Averages and records for this station are not official NWS values.
T = Trace of Precipitation, MM = Missing Value Source: NWS Daily Summary

Daily Weather History Graph

Daily Weather History Graph

Search for Another Location

Airport:

Trip Planner

Search our weather history database for the weather conditions in past years. The results will help you decide how hot, cold, wet, or windy it might be!

Date:

Astronomy

Mar. 03, 2014 Rise Set
Actual Time 6:20 AM PST 5:52 PM PST
Civil Twilight 5:55 AM PST 6:17 PM PST
Nautical Twilight 5:26 AM PST 6:46 PM PST
Astronomical Twilight 4:57 AM PST 7:15 PM PST
Moon 7:40 AM PST (3/3) 8:50 PM PST (3/3)
Length of Visible Light 12h 22m
Length of Day
11h 31m
Waxing Crescent, 8% of the Moon is Illuminated
Mar 3
Waxing Crescent
Mar 8
First Quarter
Mar 16
Full
Mar 23
Last Quarter
Mar 30
New

Hourly Weather History & Observations

Time (PST) Temp. Dew Point Humidity Pressure Visibility Wind Dir Wind Speed Gust Speed Precip Events Conditions
12:51 AM 52.0 °F 48.9 °F 89% 30.13 in 9.0 mi WNW 3.5 mph - N/A   Partly Cloudy
1:51 AM 53.1 °F 48.9 °F 86% 30.12 in 8.0 mi Calm Calm - N/A   Overcast
2:51 AM 52.0 °F 48.9 °F 89% 30.10 in 10.0 mi West 3.5 mph - N/A   Partly Cloudy
3:51 AM 52.0 °F 48.0 °F 86% 30.09 in 10.0 mi West 3.5 mph - N/A   Clear
4:51 AM 51.1 °F 48.0 °F 89% 30.09 in 10.0 mi West 4.6 mph - N/A   Clear
5:51 AM 51.1 °F 48.0 °F 89% 30.08 in 10.0 mi Calm Calm - N/A   Clear
6:51 AM 52.0 °F 46.9 °F 83% 30.09 in 10.0 mi Calm Calm - 0.01 in   Clear
7:51 AM 52.0 °F 48.0 °F 86% 30.10 in 8.0 mi NNE 3.5 mph - N/A   Mostly Cloudy
8:51 AM 55.0 °F 48.9 °F 80% 30.12 in 9.0 mi Calm Calm - N/A   Mostly Cloudy
9:51 AM 57.9 °F 48.9 °F 72% 30.11 in 10.0 mi SSE 4.6 mph - N/A   Clear
10:51 AM 61.0 °F 48.0 °F 62% 30.10 in 10.0 mi Variable 3.5 mph - N/A   Clear
11:51 AM 63.0 °F 45.0 °F 52% 30.08 in 10.0 mi Calm Calm - N/A   Clear
12:51 PM 66.0 °F 44.1 °F 45% 30.05 in 10.0 mi Calm Calm - N/A   Clear
1:51 PM 69.1 °F 45.0 °F 42% 30.03 in 10.0 mi Variable 3.5 mph - N/A   Clear
2:51 PM 70.0 °F 44.1 °F 39% 30.00 in 10.0 mi NE 3.5 mph - N/A   Mostly Cloudy
3:51 PM 69.1 °F 46.0 °F 44% 29.99 in 10.0 mi SSE 10.4 mph - N/A   Mostly Cloudy
4:51 PM 66.9 °F 45.0 °F 45% 30.00 in 10.0 mi South 4.6 mph - N/A   Clear
5:51 PM 66.0 °F 48.0 °F 52% 30.01 in 10.0 mi WSW 4.6 mph - N/A   Clear
6:51 PM 63.0 °F 48.9 °F 60% 30.04 in 10.0 mi Calm Calm - N/A   Clear
7:51 PM 60.1 °F 46.0 °F 60% 30.04 in 10.0 mi Calm Calm - N/A   Mostly Cloudy
8:51 PM 59.0 °F 46.0 °F 62% 30.04 in 10.0 mi Calm Calm - N/A   Mostly Cloudy
9:51 PM 57.9 °F 48.0 °F 70% 30.04 in 10.0 mi Calm Calm - N/A   Clear
10:51 PM 55.9 °F 48.9 °F 77% 30.04 in 10.0 mi Calm Calm - N/A   Clear
11:51 PM 55.0 °F 48.0 °F 77% 30.04 in 10.0 mi Calm Calm - N/A   Clear